Location: Goheenville
(40.9070°N, 79.3720°W)
Time: 21:04:50
(UTC-04:00)

Cosmos 1727 Rocket - Visible Passes

Search period start: 21 April 2018 00:00
Search period end: 01 May 2018 00:00
Orbit: 960 x 997 km, 82.9° (Epoch: 21 April)

Date Brightness Start Highest point End Pass type
(mag) Time Alt. Az. Time Alt. Az. Time Alt. Az.
21 Apr 6.5 00:13:01 10° WNW 00:13:50 10° WNW 00:14:38 10° W visible
21 Apr 5.0 21:04:54 10° NNE 21:10:06 28° ENE 21:13:28 18° ESE visible
21 Apr 4.9 22:49:55 10° NNW 22:55:41 43° W 22:58:14 29° SW visible
22 Apr 4.2 21:30:43 10° N 21:36:43 50° ENE 21:40:09 25° SE visible
22 Apr 5.8 23:17:01 10° NW 23:21:43 23° W 23:24:55 16° WSW visible
23 Apr 3.9 21:56:55 10° N 22:03:08 89° WSW 22:06:52 26° S visible
23 Apr 6.5 23:45:28 10° WNW 23:47:34 12° WNW 23:49:40 10° W visible
24 Apr 5.1 20:38:41 10° NNE 20:43:40 25° ENE 20:48:38 10° SE visible
24 Apr 4.7 22:23:28 10° NNW 22:29:22 48° W 22:33:38 19° SSW visible
25 Apr 4.3 21:04:24 10° N 21:10:19 45° ENE 21:15:39 12° SSE visible
25 Apr 5.8 22:50:28 10° NNW 22:55:26 26° W 23:00:22 10° SW visible
26 Apr 3.9 21:30:33 10° N 21:36:46 83° E 21:42:29 12° S visible
26 Apr 6.4 23:18:29 10° NW 23:21:18 13° W 23:24:07 10° WSW visible
27 Apr 4.6 21:57:03 10° NNW 22:03:01 54° W 22:09:00 10° SSW visible
28 Apr 4.5 20:38:06 10° N 20:43:54 41° ENE 20:49:41 10° SE visible
28 Apr 5.7 22:23:56 10° NNW 22:29:06 29° W 22:34:17 10° SW visible
29 Apr 4.0 21:04:12 10° N 21:10:23 75° E 21:16:34 10° SSE visible
29 Apr 6.4 22:51:40 10° NW 22:55:02 15° W 22:58:23 10° WSW visible
30 Apr 4.5 21:30:37 10° NNW 21:36:41 60° W 21:42:43 10° S visible
